Wakefield, VA

5:40 AM EST on January 18, 2017 (GMT -0500)
Wakefield Municipal

Weather History for KAKQ - December, 2012

Change the Weather History Date:

Tuesday, December 25, 2012

  Actual Average (KJGG) Record (KJGG)
Temperature  
Mean Temperature 50 °F -  
Max Temperature 54 °F 48 °F 77 °F (2015)
Min Temperature 45 °F 28 °F 1 °F (1983)
Degree Days  
Heating Degree Days 16    
Moisture  
Dew Point 40 °F    
Average Humidity 74    
Maximum Humidity 86    
Minimum Humidity 57    
Precipitation  
Precipitation 0.00 in - - ()
Sea Level Pressure  
Sea Level Pressure 30.08 in    
Wind  
Wind Speed 2 mph (NNW)    
Max Wind Speed 7 mph    
Max Gust Speed -    
Visibility 9 miles    
Events      
Averages and records for this station are not official NWS values.
T = Trace of Precipitation, MM = Missing Value Source: NWS Daily Summary

Daily Weather History Graph

Daily Weather History Graph

Search for Another Location

Airport or City:

Trip Planner

Search our weather history database for the weather conditions in past years. The results will help you decide how hot, cold, wet, or windy it might be!

Date:

Astronomy

Dec. 25, 2012 Rise Set
Actual Time 7:19 AM EST 4:57 PM EST
Civil Twilight 6:50 AM EST 5:26 PM EST
Nautical Twilight 6:17 AM EST 5:58 PM EST
Astronomical Twilight 5:46 AM EST 6:30 PM EST
Moon 3:03 PM EST (12/25) 4:51 AM EST (12/25)
Length of Visible Light 10h 35m
Length of Day
9h 37m
Waxing Gibbous, 93% of the Moon is Illuminated
Dec 25
Waxing Gibbous
Dec 28
Full
Jan 4
Last Quarter
Jan 11
New
Jan 18
First Quarter

Hourly Weather History & Observations

Time (EST) Temp. Windchill Dew Point Humidity Pressure Visibility Wind Dir Wind Speed Gust Speed Precip Events Conditions
12:54 AM 50.0 °F - 43.0 °F 77% 29.92 in 10.0 mi West 3.5 mph - N/A   Overcast
1:54 AM 48.9 °F - 43.0 °F 80% 29.94 in 10.0 mi Calm Calm - N/A   Overcast
2:18 AM 48.2 °F - 42.8 °F 82% 29.94 in 10.0 mi Calm Calm - N/A   Overcast
2:54 AM 48.9 °F - 43.0 °F 80% 29.96 in 10.0 mi West 3.5 mph - N/A   Overcast
3:54 AM 48.0 °F - 43.0 °F 83% 29.96 in 10.0 mi West 4.6 mph - N/A   Overcast
4:54 AM 48.0 °F - 43.0 °F 83% 29.98 in 10.0 mi Calm Calm - N/A   Overcast
5:54 AM 46.9 °F - 43.0 °F 86% 30.02 in 10.0 mi Calm Calm - N/A   Overcast
6:54 AM 46.9 °F - 43.0 °F 86% 30.05 in 9.0 mi Calm Calm - N/A   Overcast
7:54 AM 46.0 °F - 42.1 °F 86% 30.08 in 9.0 mi Calm Calm - N/A   Overcast
8:54 AM 46.9 °F - 41.0 °F 80% 30.10 in 6.0 mi North 3.5 mph - N/A   Haze
9:54 AM 48.0 °F - 42.1 °F 80% 30.11 in 4.0 mi Calm Calm - N/A   Haze
10:31 AM 48.2 °F - 42.8 °F 82% 30.11 in 9.0 mi NNE 5.8 mph - N/A   Scattered Clouds
10:54 AM 51.1 °F - 41.0 °F 68% 30.14 in 10.0 mi NNE 5.8 mph - N/A   Partly Cloudy
11:54 AM 52.0 °F - 39.0 °F 61% 30.10 in 10.0 mi NNE 6.9 mph - N/A   Clear
12:54 PM 54.0 °F - 39.9 °F 59% 30.09 in 10.0 mi Calm Calm - N/A   Clear
1:54 PM 54.0 °F - 39.9 °F 59% 30.09 in 10.0 mi Calm Calm - N/A   Partly Cloudy
2:54 PM 54.0 °F - 39.0 °F 57% 30.10 in 10.0 mi Calm Calm - N/A   Partly Cloudy
3:54 PM 52.0 °F - 39.9 °F 63% 30.12 in 10.0 mi Calm Calm - N/A   Mostly Cloudy
4:54 PM 48.0 °F - 39.0 °F 71% 30.13 in 10.0 mi NE 3.5 mph - N/A   Scattered Clouds
5:54 PM 45.0 °F - 39.0 °F 80% 30.15 in 10.0 mi Calm Calm - N/A   Clear
6:54 PM 45.0 °F - 39.0 °F 80% 30.15 in 9.0 mi Calm Calm - N/A   Mostly Cloudy
7:54 PM 45.0 °F 43.5 °F 37.0 °F 74% 30.17 in 10.0 mi Variable 3.5 mph - N/A   Overcast
8:54 PM 46.0 °F 44.8 °F 35.1 °F 66% 30.17 in 10.0 mi Variable 3.5 mph - N/A   Overcast
9:54 PM 45.0 °F - 34.0 °F 65% 30.20 in 10.0 mi Calm Calm - N/A   Overcast
10:54 PM 45.0 °F - 35.1 °F 68% 30.17 in 10.0 mi Calm Calm - N/A   Mostly Cloudy
11:54 PM 45.0 °F 43.5 °F 36.0 °F 71% 30.19 in 9.0 mi Variable 3.5 mph - N/A   Overcast